When you browse on this site, cookies collect data to enhance your experience and personalize the content and advertising you see.
Visit our Privacy Policy to learn more. By continuing to use the site, you agree to this use of cookies and data.
  • In Sweden
  • List of Countries
  • For 7 days
  • Water Temperature
  • Satellite Maps
  • Weather Map
  • Weather Widgets
  • user-avatar
    Login

    Hourly Weather Szczytno

    Today, 23 February, Saturday

    Time Temperature Precipitation Wind Pressure Humidity
    00:00 -5°C° 0 mm 3 mps 773 mmHg 49%
    01:00 -4°C° 0 mm 2 mps 774 mmHg 42%
    02:00 -4°C° 0 mm 2 mps 774 mmHg 43%
    03:00 -2°C° 0 mm 1 mps 774 mmHg 44%
    04:00 -3°C° 0 mm 1 mps 773 mmHg 44%
    05:00 -3°C° 0 mm 1 mps 773 mmHg 45%
    06:00 -4°C° 0 mm 0 mps 774 mmHg 45%
    07:00 -4°C° 0 mm 0 mps 774 mmHg 45%
    08:00 -3°C° 0 mm 0 mps 774 mmHg 42%
    09:00 -3°C° 0 mm 0 mps 774 mmHg 38%
    10:00 -2°C° 0 mm 0 mps 774 mmHg 35%
    11:00 0°C° 0 mm 1 mps 774 mmHg 33%
    12:00 0°C° 0 mm 1 mps 774 mmHg 30%
    13:00 -1°C° 0 mm 2 mps 774 mmHg 28%
    14:00 -1°C° 0 mm 2 mps 773 mmHg 29%
    15:00 -1°C° 0 mm 2 mps 773 mmHg 31%
    16:00 -1°C° 0 mm 2 mps 772 mmHg 32%
    17:00 -2°C° 0 mm 2 mps 772 mmHg 34%
    18:00 -2°C° 0 mm 2 mps 772 mmHg 37%
    19:00 -2°C° 0 mm 2 mps 771 mmHg 40%
    20:00 -3°C° 0 mm 2 mps 771 mmHg 41%
    21:00 -3°C° 0 mm 2 mps 771 mmHg 41%
    22:00 -3°C° 0 mm 2 mps 771 mmHg 42%
    23:00 -4°C° 0 mm 3 mps 770 mmHg 42%

    Tomorrow, 24 February, Sunday

    Time Temperature Precipitation Wind Pressure Humidity
    00:00 -4°C° 0 mm 3 mps 770 mmHg 41%
    01:00 -4°C° 0 mm 3 mps 770 mmHg 40%
    02:00 -4°C° 0 mm 3 mps 769 mmHg 39%
    03:00 -4°C° 0 mm 3 mps 769 mmHg 38%
    04:00 -3°C° 0 mm 4 mps 769 mmHg 37%
    05:00 -3°C° 0 mm 4 mps 769 mmHg 38%
    06:00 -3°C° 0 mm 4 mps 768 mmHg 39%
    07:00 -3°C° 0 mm 4 mps 768 mmHg 39%
    08:00 -2°C° 0 mm 4 mps 768 mmHg 40%
    09:00 -1°C° 0 mm 4 mps 768 mmHg 40%
    10:00 -1°C° 0 mm 4 mps 768 mmHg 40%
    11:00 0°C° 0 mm 4 mps 768 mmHg 38%
    12:00 +3°C° 0 mm 4 mps 768 mmHg 36%
    13:00 +4°C° 0 mm 4 mps 767 mmHg 35%
    14:00 +4°C° 0 mm 3 mps 767 mmHg 40%
    15:00 +3°C° 0 mm 3 mps 767 mmHg 45%
    16:00 +4°C° 0 mm 2 mps 767 mmHg 50%
    17:00 +3°C° 0 mm 2 mps 767 mmHg 54%
    18:00 +1°C° 0 mm 3 mps 767 mmHg 58%
    19:00 0°C° 0 mm 3 mps 767 mmHg 63%
    20:00 0°C° 0 mm 3 mps 767 mmHg 65%
    21:00 0°C° 0 mm 3 mps 766 mmHg 67%
    22:00 -1°C° 0 mm 3 mps 766 mmHg 69%
    23:00 -1°C° 0 mm 3 mps 766 mmHg 70%

    Day after tomorrow, 25 February, Monday

    Time Temperature Precipitation Wind Pressure Humidity
    00:00 -1°C° 0 mm 3 mps 766 mmHg 70%
    01:00 -1°C° 0 mm 3 mps 766 mmHg 71%
    02:00 -1°C° 0 mm 3 mps 766 mmHg 73%
    03:00 -1°C° 0 mm 3 mps 766 mmHg 74%
    04:00 -1°C° 0 mm 3 mps 766 mmHg 76%
    05:00 -1°C° 0 mm 3 mps 766 mmHg 79%
    06:00 -1°C° 0 mm 3 mps 766 mmHg 83%
    07:00 -1°C° 0 mm 3 mps 766 mmHg 86%
    08:00 -1°C° 0 mm 4 mps 766 mmHg 85%
    09:00 0°C° 0 mm 4 mps 766 mmHg 84%
    10:00 +3°C° 0 mm 4 mps 766 mmHg 83%
    11:00 +3°C° 0 mm 4 mps 766 mmHg 83%
    12:00 +4°C° 0 mm 4 mps 766 mmHg 83%
    13:00 +4°C° 0 mm 4 mps 765 mmHg 82%
    14:00 +4°C° 0 mm 4 mps 765 mmHg 82%
    15:00 +5°C° 0 mm 4 mps 765 mmHg 82%
    16:00 +5°C° 0 mm 4 mps 765 mmHg 81%
    17:00 +4°C° 0 mm 3 mps 765 mmHg 84%
    18:00 +3°C° 0 mm 3 mps 765 mmHg 87%
    19:00 +2°C° 0 mm 3 mps 764 mmHg 90%
    20:00 +2°C° 0 mm 3 mps 764 mmHg 90%
    21:00 +1°C° 0 mm 3 mps 764 mmHg 91%
    22:00 +1°C° 0 mm 3 mps 764 mmHg 91%
    23:00 0°C° 0 mm 3 mps 764 mmHg 92%

    26 February, Tuesday

    Time Temperature Precipitation Wind Pressure Humidity
    00:00 0°C° 0 mm 3 mps 764 mmHg 93%
    01:00 0°C° 0 mm 3 mps 764 mmHg 95%
    02:00 0°C° 0 mm 3 mps 763 mmHg 95%
    03:00 0°C° 0 mm 3 mps 762 mmHg 96%
    04:00 -1°C° 0 mm 4 mps 762 mmHg 96%
    05:00 0°C° 0 mm 4 mps 762 mmHg 96%
    06:00 +1°C° 0 mm 4 mps 761 mmHg 96%
    07:00 +2°C° 0 mm 5 mps 761 mmHg 95%
    08:00 +2°C° 0 mm 5 mps 761 mmHg 93%
    09:00 +3°C° 0 mm 5 mps 761 mmHg 91%
    10:00 +3°C° 0 mm 5 mps 761 mmHg 89%
    11:00 +5°C° 0 mm 5 mps 761 mmHg 83%
    12:00 +6°C° 0 mm 5 mps 761 mmHg 78%
    13:00 +7°C° 0 mm 6 mps 761 mmHg 72%
    14:00 +7°C° 0 mm 5 mps 761 mmHg 71%
    15:00 +7°C° 0 mm 5 mps 761 mmHg 69%
    16:00 +7°C° 0 mm 4 mps 761 mmHg 67%
    17:00 +6°C° 0 mm 4 mps 762 mmHg 72%
    18:00 +5°C° 0 mm 4 mps 762 mmHg 77%
    19:00 +3°C° 0 mm 3 mps 762 mmHg 82%
    20:00 +3°C° 0 mm 3 mps 763 mmHg 84%
    21:00 +2°C° 0 mm 3 mps 763 mmHg 86%
    22:00 +2°C° 0 mm 2 mps 763 mmHg 88%
    23:00 +2°C° 0 mm 2 mps 763 mmHg 88%

    27 February, Wednesday

    Time Temperature Precipitation Wind Pressure Humidity
    00:00 +2°C° 0 mm 2 mps 763 mmHg 88%
    01:00 +2°C° 0 mm 1 mps 763 mmHg 89%
    02:00 +1°C° 0 mm 2 mps 763 mmHg 88%
    03:00 +1°C° 0 mm 2 mps 763 mmHg 88%
    04:00 +1°C° 0 mm 2 mps 762 mmHg 88%
    05:00 +1°C° 0 mm 2 mps 762 mmHg 88%
    06:00 +1°C° 0 mm 2 mps 762 mmHg 87%
    07:00 0°C° 0 mm 3 mps 761 mmHg 87%
    08:00 +2°C° 0 mm 3 mps 761 mmHg 84%
    09:00 +3°C° 0 mm 4 mps 761 mmHg 80%
    10:00 +5°C° 0 mm 4 mps 760 mmHg 77%
    11:00 +6°C° 0 mm 5 mps 760 mmHg 72%
    12:00 +7°C° 0 mm 5 mps 759 mmHg 68%
    13:00 +8°C° 0 mm 5 mps 759 mmHg 63%
    14:00 +8°C° 0 mm 5 mps 758 mmHg 64%
    15:00 +8°C° 0 mm 5 mps 758 mmHg 64%
    16:00 +8°C° 0 mm 4 mps 757 mmHg 65%
    17:00 +7°C° 0 mm 4 mps 757 mmHg 71%
    18:00 +6°C° 0 mm 4 mps 757 mmHg 78%
    19:00 +5°C° 0 mm 3 mps 756 mmHg 84%
    20:00 +4°C° 0 mm 3 mps 756 mmHg 86%
    21:00 +4°C° 0 mm 3 mps 755 mmHg 88%
    22:00 +4°C° 0 mm 3 mps 755 mmHg 90%
    23:00 +4°C° 0 mm 3 mps 754 mmHg 89%

    28 February, Thursday

    Time Temperature Precipitation Wind Pressure Humidity
    00:00 +4°C° 0 mm 4 mps 753 mmHg 88%
    01:00 +4°C° 0 mm 4 mps 753 mmHg 87%
    02:00 +4°C° 0 mm 4 mps 752 mmHg 86%
    03:00 +2°C° 0 mm 5 mps 751 mmHg 85%
    04:00 +2°C° 0 mm 5 mps 750 mmHg 84%
    05:00 +2°C° 0 mm 6 mps 749 mmHg 82%
    06:00 +2°C° 0 mm 6 mps 749 mmHg 80%
    07:00 +2°C° 0 mm 7 mps 748 mmHg 79%
    08:00 +3°C° 0 mm 7 mps 748 mmHg 78%
    09:00 +4°C° 0 mm 8 mps 748 mmHg 78%
    10:00 +5°C° 0 mm 9 mps 748 mmHg 77%
    11:00 +5°C° 0 mm 9 mps 748 mmHg 76%
    12:00 +5°C° 0 mm 9 mps 748 mmHg 74%
    13:00 +5°C° 0 mm 10 mps 748 mmHg 73%
    14:00 +6°C° 0 mm 9 mps 748 mmHg 68%
    15:00 +6°C° 0 mm 9 mps 748 mmHg 64%
    16:00 +7°C° 0 mm 9 mps 748 mmHg 59%
    17:00 +6°C° 0 mm 8 mps 748 mmHg 61%
    18:00 +5°C° 0 mm 8 mps 748 mmHg 64%
    19:00 +4°C° 0 mm 8 mps 749 mmHg 66%
    20:00 +3°C° 0 mm 7 mps 749 mmHg 70%
    21:00 +3°C° 0 mm 7 mps 749 mmHg 73%
    22:00 +2°C° 0 mm 6 mps 749 mmHg 76%
    23:00 +2°C° 0 mm 6 mps 749 mmHg 78%
    Show more